Regional Weather Roundup
Issued by NWS

Home | Current Version | Previous Version | Graphics & Text | Print | Product List | Glossary On
Versions: 1 2 3 4 5 6 7 8 9 10 11 12 13 14 15 16 17 18 19 20 21 22 23 24 25 26 27 28 29 30 31 32 33 34 35 36 37 38 39 40 41 42 43 44 45 46 47 48 49 50
000
ASUS43 KTOP 201359
RWRKS

WEATHER ROUNDUP FOR KANSAS
NATIONAL WEATHER SERVICE GOODLAND KS
900 AM CDT SUN APR 20 2014

NOTE:  "FAIR" INDICATES FEW OR NO CLOUDS BELOW 12,000 FEET WITH NO
SIGNIFICANT WEATHER AND/OR OBSTRUCTIONS TO VISIBILITY.

KSZ001>006-013>018-027>032-041>047-201500-
NORTHWEST KANSAS

CITY           SKY/WX    TMP DP  RH WIND       PRES   REMARKS
GOODLAND       PTSUNNY   49  48  97 N8        30.01R FOG
HAYS           CLOUDY    63  50  63 S10G16    30.02R
HILL CITY      PTSUNNY   58  50  75 CALM      30.00S
RUSSELL        PTSUNNY   63  50  62 S16       30.00S
$$

KSZ061>065-074>080-084>089-201500-
SOUTHWEST KANSAS

CITY           SKY/WX    TMP DP  RH WIND       PRES   REMARKS
DODGE CITY     CLOUDY    59  50  72 S13       30.03R
ELKHART          N/A     54  44  69 S13         N/A
GARDEN CITY    PTSUNNY   58  50  75 S9        30.00S
GREAT BEND     CLOUDY    61  48  63 S15       30.02S
LIBERAL        MOSUNNY   55  48  76 S6        30.04R
$$

KSZ066>073-081>083-090>101-201500-
SOUTHEAST KANSAS

CITY           SKY/WX    TMP DP  RH WIND       PRES   REMARKS
CHANUTE        PTSUNNY   65  52  62 S10       30.13R
COFFEYVILLE    CLOUDY    64  52  64 S10       30.13S
HUTCHINSON     PTSUNNY   62  50  64 S12       30.05S
NEWTON         PTSUNNY   64  48  55 S13G20    30.10S
PARSONS        CLOUDY    66  51  58 S9        30.14S
WICHITA INTL   CLOUDY    64  52  64 S14       30.07S
WICHITA JABRA  CLOUDY    65  52  62 S15       30.07S
WINFIELD       CLOUDY    64  53  67 S13       30.11R
$$

KSZ007>012-019>026-033>040-048>060-102>105-201500-
NORTHEAST KANSAS

CITY           SKY/WX    TMP DP  RH WIND       PRES   REMARKS
CONCORDIA      CLOUDY    65  51  60 S18G28    30.01R
EMPORIA        PTSUNNY   61  50  67 S14       30.08S
LAWRENCE       PTSUNNY   64  50  60 S8        30.09S
MANHATTAN      PTSUNNY   67  51  56 SW16G24   30.03F
OLATHE IND     PTSUNNY   62  49  62 S10       30.11S
OLATHE EXE     PTSUNNY   62  49  62 S9        30.10S
SALINA         MOSUNNY   67  51  56 S14       30.04R
TOPEKA BILLARD CLOUDY    66  50  56 S12G17    30.07S
TOPEKA FORBES  PTSUNNY   64  50  60 S14       30.07S
$$



USA.gov is the U.S. government's official web portal to all federal, state and local government web resources and services.